Вернуться в каталог

BREEZE-M DEB

LostHEO
NORAD 32493·DEBRIS·🇷🇺 Russia

Запущен Feb 28, 2006 с Baikonur Cosmodrome

Loading…

Ближайшие Пролёты (ближайшие 24 часа)

TLE

УстаревшееSource: Space-Track

Эпоха: May 1, 2026, 15:27 UTC

1 32493U 06006AG  26121.64421905  .00006293  00000-0  43148-2 0  9998
2 32493  51.6143 260.1299 4892408 235.7460  68.0389  5.65662420379317

Отслеживайте BREEZE-M DEB в реальном времени с AllMySat

Download on the App Store